• En España
  • Lista de países
  • Para 7 días
  • Temperatura del agua
  • Mapa Satelital
  • El tiempo en el mapa
  • Informadores
  • user-avatar
    Iniciar sesión

    Tiempo cada hora Rio de Mouro

    Hoy, 22 Noviembre, Miércoles

    Tiempo Temperatura Precipitaciones Viento Presión Humedad
    00:00 +12°C° 0 mm 5 mps 750 mmHg 85%
    01:00 +12°C° 0 mm 5 mps 750 mmHg 83%
    02:00 +10°C° 0 mm 5 mps 749 mmHg 81%
    03:00 +10°C° 0 mm 5 mps 749 mmHg 80%
    04:00 +10°C° 0 mm 6 mps 749 mmHg 78%
    05:00 +10°C° 0 mm 6 mps 749 mmHg 77%
    06:00 +11°C° 0 mm 6 mps 749 mmHg 73%
    07:00 +13°C° 0 mm 6 mps 749 mmHg 70%
    08:00 +14°C° 0 mm 7 mps 749 mmHg 66%
    09:00 +16°C° 0 mm 7 mps 748 mmHg 61%
    10:00 +18°C° 0 mm 8 mps 748 mmHg 57%
    11:00 +21°C° 0 mm 8 mps 748 mmHg 53%
    12:00 +21°C° 0 mm 8 mps 748 mmHg 53%
    13:00 +21°C° 0 mm 8 mps 747 mmHg 54%
    14:00 +21°C° 0 mm 8 mps 747 mmHg 54%
    15:00 +20°C° 0,1 mm 8 mps 747 mmHg 58%
    16:00 +20°C° 0,1 mm 7 mps 747 mmHg 61%
    17:00 +19°C° 0,1 mm 6 mps 747 mmHg 65%
    18:00 +19°C° 0 mm 6 mps 747 mmHg 68%
    19:00 +17°C° 0 mm 7 mps 747 mmHg 71%
    20:00 +17°C° 0 mm 7 mps 748 mmHg 74%
    21:00 +17°C° 0 mm 7 mps 748 mmHg 74%
    22:00 +17°C° 0 mm 7 mps 748 mmHg 74%
    23:00 +17°C° 0 mm 7 mps 747 mmHg 74%

    Mañana, 23 Noviembre, Jueves

    Tiempo Temperatura Precipitaciones Viento Presión Humedad
    00:00 +17°C° 0 mm 6 mps 747 mmHg 75%
    01:00 +17°C° 0 mm 6 mps 748 mmHg 75%
    02:00 +17°C° 0 mm 6 mps 748 mmHg 76%
    03:00 +17°C° 0 mm 6 mps 747 mmHg 76%
    04:00 +17°C° 0 mm 6 mps 747 mmHg 75%
    05:00 +17°C° 0 mm 6 mps 747 mmHg 75%
    06:00 +17°C° 0 mm 7 mps 748 mmHg 71%
    07:00 +17°C° 0 mm 7 mps 748 mmHg 67%
    08:00 +18°C° 0 mm 8 mps 748 mmHg 62%
    09:00 +20°C° 0,1 mm 8 mps 748 mmHg 56%
    10:00 +21°C° 0,1 mm 9 mps 748 mmHg 49%
    11:00 +22°C° 0,1 mm 9 mps 748 mmHg 43%
    12:00 +21°C° 0,8 mm 10 mps 748 mmHg 47%
    13:00 +21°C° 0,8 mm 11 mps 748 mmHg 51%
    14:00 +21°C° 0,8 mm 12 mps 747 mmHg 56%
    15:00 +19°C° 0,4 mm 11 mps 748 mmHg 64%
    16:00 +19°C° 0,4 mm 10 mps 748 mmHg 71%
    17:00 +18°C° 0,4 mm 9 mps 748 mmHg 79%
    18:00 +18°C° 0,1 mm 8 mps 749 mmHg 80%
    19:00 +17°C° 0,1 mm 7 mps 749 mmHg 80%
    20:00 +17°C° 0,1 mm 6 mps 750 mmHg 81%
    21:00 +17°C° 0 mm 5 mps 750 mmHg 82%
    22:00 +16°C° 0 mm 5 mps 750 mmHg 84%
    23:00 +16°C° 0 mm 5 mps 750 mmHg 85%

    Pasado mañana, 24 Noviembre, Viernes

    Tiempo Temperatura Precipitaciones Viento Presión Humedad
    00:00 +16°C° 0,5 mm 5 mps 750 mmHg 86%
    01:00 +16°C° 0,5 mm 5 mps 750 mmHg 86%
    02:00 +16°C° 0,5 mm 5 mps 750 mmHg 87%
    03:00 +16°C° 0,4 mm 5 mps 749 mmHg 88%
    04:00 +15°C° 0,4 mm 5 mps 749 mmHg 89%
    05:00 +15°C° 0,4 mm 6 mps 749 mmHg 90%
    06:00 +15°C° 0,2 mm 6 mps 750 mmHg 87%
    07:00 +16°C° 0,2 mm 6 mps 750 mmHg 84%
    08:00 +16°C° 0,2 mm 6 mps 750 mmHg 81%
    09:00 +18°C° 0,1 mm 7 mps 750 mmHg 75%
    10:00 +20°C° 0,1 mm 7 mps 750 mmHg 68%
    11:00 +22°C° 0,1 mm 7 mps 750 mmHg 62%
    12:00 +21°C° 0,2 mm 7 mps 750 mmHg 62%
    13:00 +21°C° 0,2 mm 7 mps 750 mmHg 63%
    14:00 +21°C° 0,2 mm 6 mps 750 mmHg 63%
    15:00 +20°C° 0,1 mm 5 mps 750 mmHg 70%
    16:00 +19°C° 0,1 mm 4 mps 750 mmHg 78%
    17:00 +18°C° 0,1 mm 4 mps 750 mmHg 85%
    18:00 +17°C° 0,1 mm 3 mps 750 mmHg 87%
    19:00 +17°C° 0,1 mm 3 mps 751 mmHg 89%
    20:00 +17°C° 0,1 mm 2 mps 751 mmHg 91%
    21:00 +17°C° 0,1 mm 2 mps 752 mmHg 91%
    22:00 +16°C° 0,1 mm 2 mps 752 mmHg 91%
    23:00 +16°C° 0,1 mm 2 mps 752 mmHg 91%

    25 Noviembre, Sábado

    Tiempo Temperatura Precipitaciones Viento Presión Humedad
    00:00 +16°C° 0 mm 3 mps 752 mmHg 91%
    01:00 +15°C° 0 mm 4 mps 752 mmHg 91%
    02:00 +15°C° 0 mm 4 mps 751 mmHg 90%
    03:00 +15°C° 0,1 mm 4 mps 752 mmHg 91%
    04:00 +15°C° 0,1 mm 4 mps 752 mmHg 91%
    05:00 +14°C° 0,1 mm 4 mps 752 mmHg 91%
    06:00 +14°C° 0,2 mm 4 mps 752 mmHg 90%
    07:00 +14°C° 0,2 mm 4 mps 753 mmHg 89%
    08:00 +14°C° 0,2 mm 4 mps 753 mmHg 87%
    09:00 +15°C° 0,4 mm 4 mps 753 mmHg 84%
    10:00 +17°C° 0,4 mm 3 mps 753 mmHg 81%
    11:00 +18°C° 0,4 mm 3 mps 753 mmHg 78%
    12:00 +18°C° 0,4 mm 3 mps 753 mmHg 80%
    13:00 +17°C° 0,4 mm 2 mps 753 mmHg 81%
    14:00 +17°C° 0,4 mm 2 mps 752 mmHg 83%
    15:00 +17°C° 0,5 mm 2 mps 753 mmHg 85%
    16:00 +16°C° 0,5 mm 2 mps 753 mmHg 87%
    17:00 +16°C° 0,5 mm 1 mps 753 mmHg 90%
    18:00 +15°C° 0,3 mm 1 mps 753 mmHg 89%
    19:00 +15°C° 0,3 mm 2 mps 753 mmHg 89%
    20:00 +15°C° 0,3 mm 2 mps 754 mmHg 89%
    21:00 +15°C° 0,1 mm 2 mps 754 mmHg 88%
    22:00 +15°C° 0,1 mm 2 mps 753 mmHg 88%
    23:00 +15°C° 0,1 mm 2 mps 753 mmHg 87%

    26 Noviembre, Domingo

    Tiempo Temperatura Precipitaciones Viento Presión Humedad
    00:00 +15°C° 0,2 mm 2 mps 753 mmHg 88%
    01:00 +14°C° 0,2 mm 2 mps 753 mmHg 88%
    02:00 +14°C° 0,2 mm 2 mps 753 mmHg 89%
    03:00 +14°C° 0,4 mm 2 mps 753 mmHg 89%
    04:00 +14°C° 0,4 mm 2 mps 753 mmHg 90%
    05:00 +14°C° 0,4 mm 1 mps 753 mmHg 90%
    06:00 +14°C° 0,3 mm 2 mps 754 mmHg 90%
    07:00 +14°C° 0,3 mm 2 mps 754 mmHg 90%
    08:00 +15°C° 0,3 mm 2 mps 755 mmHg 90%
    09:00 +15°C° 0,3 mm 2 mps 755 mmHg 89%
    10:00 +15°C° 0,3 mm 2 mps 755 mmHg 88%
    11:00 +16°C° 0,3 mm 2 mps 755 mmHg 87%
    12:00 +16°C° 0,1 mm 3 mps 755 mmHg 84%
    13:00 +17°C° 0,1 mm 3 mps 755 mmHg 82%
    14:00 +17°C° 0,1 mm 3 mps 754 mmHg 79%
    15:00 +17°C° 0 mm 3 mps 755 mmHg 83%
    16:00 +16°C° 0 mm 3 mps 755 mmHg 87%
    17:00 +14°C° 0 mm 4 mps 755 mmHg 91%
    18:00 +13°C° 0 mm 4 mps 755 mmHg 91%
    19:00 +13°C° 0 mm 4 mps 755 mmHg 92%
    20:00 +13°C° 0 mm 4 mps 755 mmHg 92%
    21:00 +12°C° 0 mm 5 mps 755 mmHg 91%
    22:00 +12°C° 0 mm 5 mps 755 mmHg 91%
    23:00 +12°C° 0 mm 5 mps 755 mmHg 90%

    27 Noviembre, Lunes

    Tiempo Temperatura Precipitaciones Viento Presión Humedad
    00:00 +12°C° 0 mm 5 mps 755 mmHg 89%
    01:00 +12°C° 0 mm 5 mps 755 mmHg 88%
    02:00 +12°C° 0 mm 5 mps 754 mmHg 87%
    03:00 +12°C° 0 mm 5 mps 754 mmHg 86%
    04:00 +12°C° 0 mm 5 mps 754 mmHg 85%
    05:00 +12°C° 0 mm 5 mps 754 mmHg 84%
    06:00 +13°C° 0 mm 5 mps 754 mmHg 83%
    07:00 +13°C° 0 mm 5 mps 754 mmHg 81%
    08:00 +13°C° 0 mm 6 mps 754 mmHg 79%
    09:00 +14°C° 0 mm 5 mps 754 mmHg 74%
    10:00 +16°C° 0 mm 5 mps 754 mmHg 69%
    11:00 +17°C° 0 mm 5 mps 754 mmHg 64%
    12:00 +17°C° 0 mm 5 mps 753 mmHg 63%
    13:00 +17°C° 0 mm 5 mps 752 mmHg 61%
    14:00 +19°C° 0 mm 4 mps 752 mmHg 60%
    15:00 +18°C° 0,2 mm 4 mps 751 mmHg 63%
    16:00 +17°C° 0,2 mm 4 mps 751 mmHg 66%
    17:00 +17°C° 0,2 mm 4 mps 751 mmHg 70%
    18:00 +15°C° 0,9 mm 4 mps 751 mmHg 74%
    19:00 +15°C° 0,9 mm 4 mps 750 mmHg 79%
    20:00 +15°C° 0,9 mm 5 mps 750 mmHg 84%
    21:00 +15°C° 1,4 mm 5 mps 750 mmHg 87%
    22:00 +15°C° 1,4 mm 5 mps 749 mmHg 90%
    23:00 +15°C° 1,4 mm 5 mps 748 mmHg 92%
    Mostrar más